Lid_Strength_Index
4 3 3 3 3 3 3 3 3 3 3 3 4 4 4 3 3 8 10 7 6 4 3 7 7 8 8 9 8 5 11 13 12 11 10 7 7 5 4 6 5 4 5 4 2
3 4 4 4 4 4 4 4 4 3 3 3 4 4 4 4 6 10 6 4 4 4 8 9 10 9 11 10 9 10 12 12 11 10 9 7 8 7 7 7 6 6 4 3 3
4 4 4 4 4 4 4 4 4 4 4 4 4 4 4 5 9 11 5 4 4 5 8 8 9 10 12 10 10 10 13 10 10 8 9 10 10 8 10 10 8 8 7 6 5
5 5 5 5 4 4 5 5 4 4 4 4 4 4 4 7 15 9 5 5 4 6 9 9 10 11 13 13 10 14 12 12 10 10 11 13 12 13 12 12 9 9 9 9 8
5 5 5 5 5 5 5 5 5 5 4 5 5 4 7 11 12 8 5 6 8 8 10 10 12 12 13 12 12 14 13 11 11 12 12 12 13 13 13 11 10 10 9 10 10
5 5 6 6 6 5 5 5 5 5 5 5 5 5 8 14 9 8 8 8 8 9 10 10 11 10 10 13 13 12 12 13 12 12 12 13 14 13 12 11 10 9 9 9 9
5 5 5 6 6 5 5 5 5 5 5 5 5 7 11 13 8 8 8 8 8 8 10 9 8 10 11 12 11 11 14 13 12 12 14 14 16 15 12 11 11 11 12 11 11
4 5 5 5 5 5 5 5 5 6 5 5 5 7 13 8 8 8 8 8 7 6 7 7 7 9 10 10 11 14 14 17 13 13 13 15 19 13 12 12 13 12 12 11 11
4 5 5 5 5 5 5 5 6 7 6 5 7 8 13 8 10 8 8 9 8 8 7 7 8 11 11 14 16 15 20 18 16 13 14 14 17 14 12 12 12 12 12 11 11
4 4 4 4 4 5 5 6 5 6 6 8 9 11 11 12 9 9 8 8 9 10 10 10 11 14 15 17 22 20 20 18 18 14 14 15 16 13 12 12 12 12 11 11 11
3 4 4 4 5 6 6 7 9 10 9 12 12 12 11 9 8 9 8 9 9 11 15 12 15 18 17 16 16 16 17 18 15 13 15 16 15 14 12 12 12 12 12 12 11
3 3 4 4 5 5 6 9 10 9 13 10 11 11 10 9 12 10 8 12 12 15 14 15 17 15 14 14 15 16 18 18 15 13 15 15 16 13 12 12 12 12 12 12 11
3 3 3 4 4 5 7 8 6 7 13 13 11 11 11 10 13 12 10 12 14 15 16 17 15 14 15 16 16 16 18 18 18 15 14 15 18 16 13 12 11 11 11 11 11
3 3 4 4 7 7 8 7 6 8 15 15 14 12 11 11 13 10 10 12 13 16 15 16 14 15 16 16 15 19 15 16 16 18 24 15 23 18 14 14 12 11 11 10 9
3 4 3 5 7 9 8 7 7 9 21 15 15 10 11 13 13 12 10 12 15 15 15 17 16 17 17 16 14 17 14 15 16 18 20 19 22 18 14 14 13 10 7 7 6
3 3 4 6 6 7 6 7 9 16 21 17 14 15 15 13 13 12 13 11 12 15 14 15 13 15 15 14 14 14 15 15 15 18 26 20 19 19 16 14 10 8 8 7 6
4 4 5 5 8 6 7 9 16 20 17 19 17 15 16 16 15 15 15 16 17 20 18 16 16 14 13 16 14 14 18 25 26 27 25 17 19 16 12 10 9 9 9 8 7
4 4 7 6 6 7 8 14 22 16 19 16 16 16 18 16 16 16 17 18 15 16 19 21 22 16 14 16 18 17 17 24 30 26 23 17 21 15 10 8 8 8 8 8 7
4 7 8 7 6 7 11 19 18 16 16 18 17 19 18 17 18 18 18 18 15 15 20 20 20 15 14 14 15 16 18 14 23 21 23 20 15 11 10 10 9 9 8 9 8
8 9 10 7 8 9 14 17 17 16 15 16 18 17 19 19 20 19 18 17 16 14 14 17 23 17 16 15 13 15 13 20 20 27 28 22 18 17 12 11 10 10 10 10 9
9 12 10 8 9 12 18 17 16 15 14 17 17 18 18 19 18 19 19 17 14 15 14 16 19 19 17 18 17 17 17 16 16 18 22 23 20 12 14 11 12 11 10 10 10
10 15 10 9 15 15 17 17 14 16 14 15 16 16 17 17 18 19 19 17 14 14 18 15 18 24 20 15 14 15 16 15 22 22 17 17 19 11 10 11 10 10 10 11 10
12 15 11 11 17 17 16 17 16 16 16 16 17 16 15 17 21 18 20 15 14 16 18 16 22 28 23 17 15 17 15 14 15 15 19 21 20 11 10 12 11 12 12 12 11
13 17 15 15 13 15 17 17 18 14 15 15 16 16 17 18 17 22 20 16 15 17 14 14 21 23 25 21 19 20 17 15 16 21 18 18 18 14 14 13 13 12 12 12 11
12 15 14 18 16 15 14 15 18 18 15 15 17 17 17 21 19 22 19 17 16 14 15 18 23 21 20 18 18 18 17 16 17 16 19 17 16 14 14 14 13 12 12 12 12
13 14 13 15 14 15 15 16 17 16 17 18 18 17 17 20 18 21 18 18 18 16 17 17 26 24 27 20 19 20 18 18 17 16 16 15 17 13 13 12 12 12 13 13 14
9 10 11 13 14 16 15 15 15 15 15 14 16 16 17 16 15 16 15 16 17 17 18 18 21 27 30 21 24 26 21 18 17 15 14 18 15 14 14 13 13 13 13 15 14